Melbourne Airport, Australia

8:18 PM AEST on May 28, 2017 (GMT +1000)
Melbourne International

Weather History for YMML - July, 2013

Change the Weather History Date:

Sunday, July 14, 2013

  Actual Average Record
Temperature  
Mean Temperature 54 °F -  
Max Temperature 57 °F 54 °F 62 °F (2008)
Min Temperature 52 °F 41 °F 33 °F (1998)
Degree Days  
Heating Degree Days 10    
Growing Degree Days 4 (Base 50)    
Moisture  
Dew Point 52 °F    
Average Humidity 83    
Maximum Humidity 88    
Minimum Humidity 74    
Precipitation  
Precipitation 0.02 in 0.06 in - ()
Sea Level Pressure  
Sea Level Pressure 30.06 in    
Wind  
Wind Speed 22 mph ()    
Max Wind Speed 52 mph    
Max Gust Speed 44 mph    
Visibility 7.7 miles    
Events Rain    
Averages and records for this station are not official NWS values.
T = Trace of Precipitation, MM = Missing Value Source: Averaged Metar Reports

Daily Weather History Graph

Daily Weather History Graph

Search for Another Location

Airport or City:

Trip Planner

Search our weather history database for the weather conditions in past years. The results will help you decide how hot, cold, wet, or windy it might be!

Date:

Astronomy

Jul. 14, 2013 Rise Set
Actual Time 7:33 AM AEST 5:19 PM AEST
Civil Twilight 7:04 AM AEST 5:48 PM AEST
Nautical Twilight 6:32 AM AEST 6:21 PM AEST
Astronomical Twilight 6:00 AM AEST 6:52 PM AEST
Moon 10:27 AM AEST (7/14) 11:08 PM AEST (7/14)
Length of Visible Light 10h 44m
Length of Day
9h 46m
Waxing Crescent, 29% of the Moon is Illuminated
Jul 14
Waxing Crescent
Jul 16
First Quarter
Jul 23
Full
Jul 30
Last Quarter
Aug 7
New

Hourly Weather History & Observations

Time (AEST) Temp. Dew Point Humidity Pressure Visibility Wind Dir Wind Speed Gust Speed Precip Events Conditions
12:00 AM 56 °F 51 °F 80% 30.16 in 19 mi NNE 11.5 mph - - Rain Light Rain
12:00 AM 55.4 °F 51.8 °F 88% 30.15 in 6.2 mi NNE 11.5 mph - N/A Rain Light Rain
12:30 AM 57.2 °F 51.8 °F 82% 30.12 in 6.2 mi North 15.0 mph - N/A Rain Light Rain
1:00 AM 57 °F 52 °F 79% 30.14 in - North 38.0 mph - -  
1:00 AM 57.2 °F 51.8 °F 82% 30.12 in 6.2 mi North 19.6 mph - N/A Rain Light Rain
1:30 AM 57.2 °F 51.8 °F 82% 30.12 in 6.2 mi North 21.9 mph - N/A   Overcast
2:00 AM 57.2 °F 51.8 °F 82% 30.12 in 6.2 mi North 25.3 mph - N/A   Overcast
2:30 AM 57.2 °F 51.8 °F 82% 30.12 in 6.2 mi North 23.0 mph - N/A   Overcast
3:00 AM 57 °F 52 °F 76% 30.12 in 19 mi North 42.5 mph - - Rain Light Rain
3:00 AM 57.2 °F 51.8 °F 82% 30.09 in 6.2 mi North 21.9 mph - N/A Rain Light Rain
3:30 AM 57.2 °F 51.8 °F 82% 30.09 in 6.2 mi North 23.0 mph - N/A Rain Light Rain
4:00 AM 56 °F 52 °F 83% 30.11 in - North 42.5 mph - -  
4:00 AM 57.2 °F 51.8 °F 82% 30.09 in 6.2 mi North 21.9 mph - N/A   Overcast
4:16 AM 57.2 °F 51.8 °F 82% 30.09 in 6.2 mi North 21.9 mph 33.4 mph N/A   Overcast
4:30 AM 55.4 °F 51.8 °F 88% 30.09 in 6.2 mi North 23.0 mph - N/A   Overcast
5:00 AM 55.4 °F 51.8 °F 88% 30.09 in 6.2 mi North 20.7 mph - N/A Rain Light Rain
5:34 AM 57.2 °F 51.8 °F 82% 30.06 in 6.2 mi North 23.0 mph 35.7 mph N/A Rain Light Rain
6:00 AM 57 °F 52 °F 76% 30.07 in 19 mi North 31.1 mph - - Rain Light Rain
6:00 AM 57.2 °F 51.8 °F 82% 30.06 in 6.2 mi North 31.1 mph - N/A Rain Light Rain
6:30 AM 57.2 °F 51.8 °F 82% 30.06 in 6.2 mi North 26.5 mph - N/A   Mostly Cloudy
7:00 AM 57 °F 52 °F 76% 30.11 in - North 40.3 mph - -  
7:00 AM 57.2 °F 51.8 °F 82% 30.09 in 6.2 mi North 20.7 mph - N/A   Mostly Cloudy
7:16 AM 57.2 °F 51.8 °F 82% 30.09 in 6.2 mi North 20.7 mph 33.4 mph N/A   Mostly Cloudy
7:35 AM 57.2 °F 51.8 °F 82% 30.09 in 6.2 mi North 20.7 mph 32.2 mph N/A   Mostly Cloudy
8:00 AM 57.2 °F 51.8 °F 82% 30.12 in 6.2 mi North 16.1 mph - N/A   Mostly Cloudy
8:25 AM 57.2 °F 51.8 °F 82% 30.09 in 6.2 mi North 17.3 mph 28.8 mph N/A   Mostly Cloudy
8:30 AM 57.2 °F 50.0 °F 77% 30.09 in 6.2 mi North 19.6 mph - N/A   Mostly Cloudy
9:00 AM 56 °F 51 °F 78% 30.13 in 19 mi North 21.9 mph - -   Mostly Cloudy
9:00 AM 57.2 °F 51.8 °F 82% 30.12 in 6.2 mi North 21.9 mph - N/A   Mostly Cloudy
9:30 AM 57.2 °F 51.8 °F 82% 30.09 in 6.2 mi North 19.6 mph - N/A   Mostly Cloudy
9:47 AM 57.2 °F 51.8 °F 82% 30.09 in 6.2 mi North 20.7 mph 32.2 mph N/A   Mostly Cloudy
10:00 AM 57 °F 51 °F 74% 30.12 in - North 42.5 mph - -  
10:00 AM 57.2 °F 51.8 °F 82% 30.09 in 6.2 mi North 21.9 mph - N/A   Mostly Cloudy
10:30 AM 57.2 °F 51.8 °F 82% 30.09 in 6.2 mi North 26.5 mph - N/A   Mostly Cloudy
10:46 AM 57.2 °F 50.0 °F 77% 30.06 in 6.2 mi North 26.5 mph 38.0 mph N/A   Mostly Cloudy
11:00 AM 57.2 °F 51.8 °F 82% 30.06 in 6.2 mi North 24.2 mph - N/A   Mostly Cloudy
11:11 AM 57.2 °F 51.8 °F 82% 30.06 in 6.2 mi North 24.2 mph 35.7 mph N/A   Mostly Cloudy
11:30 AM 57.2 °F 51.8 °F 82% 30.06 in - North 23.0 mph - N/A   Unknown
12:00 PM 57 °F 51 °F 74% 30.07 in 19 mi North 23.0 mph - - Rain Light Rain
12:00 PM 57.2 °F 51.8 °F 82% 30.04 in 6.2 mi North 23.0 mph - N/A   Mostly Cloudy
12:11 PM 57.2 °F 51.8 °F 82% 30.04 in 6.2 mi North 23.0 mph 34.5 mph N/A   Mostly Cloudy
12:30 PM 57.2 °F 51.8 °F 82% 30.04 in 6.2 mi North 21.9 mph - N/A   Mostly Cloudy
12:53 PM 57.2 °F 51.8 °F 82% 30.01 in 6.2 mi North 23.0 mph 34.5 mph N/A   Mostly Cloudy
1:00 PM 57 °F 51 °F 75% 30.03 in - North 51.5 mph - -  
1:00 PM 57.2 °F 51.8 °F 82% 30.01 in 6.2 mi North 26.5 mph 38.0 mph N/A   Mostly Cloudy
1:30 PM 57.2 °F 51.8 °F 82% 30.01 in 6.2 mi North 31.1 mph - N/A Rain Light Rain
1:36 PM 57.2 °F 51.8 °F 82% 30.01 in 6.2 mi North 31.1 mph 43.7 mph N/A Rain Light Rain
2:00 PM 57.2 °F 51.8 °F 82% 29.98 in 6.2 mi North 31.1 mph 43.7 mph N/A Rain Light Rain
2:30 PM 57.2 °F 51.8 °F 82% 30.01 in 6.2 mi North 28.8 mph - N/A Rain Light Rain Showers
3:00 PM 57 °F 52 °F 78% 30.02 in 16 mi North 25.3 mph - - Rain Light Rain Showers
3:00 PM 57.2 °F 51.8 °F 82% 30.01 in 6.2 mi North 25.3 mph - N/A Rain Light Rain Showers
3:04 PM 57.2 °F 51.8 °F 82% 30.01 in 6.2 mi North 24.2 mph 35.7 mph N/A Rain Light Rain Showers
3:30 PM 57.2 °F 51.8 °F 82% 30.01 in 6.2 mi North 24.2 mph - N/A Rain Light Rain Showers
4:03 PM 57.2 °F 51.8 °F 82% 30.01 in 6.2 mi North 21.9 mph 34.5 mph N/A Rain Light Rain Showers
4:30 PM 57.2 °F 51.8 °F 82% 30.01 in 6.2 mi North 20.7 mph - N/A   Light Drizzle
5:00 PM 55.4 °F 51.8 °F 88% 30.01 in 6.2 mi North 19.6 mph - N/A   Light Drizzle
5:30 PM 55.4 °F 51.8 °F 88% 30.01 in 6.2 mi North 21.9 mph - N/A   Mostly Cloudy
5:52 PM 55.4 °F 51.8 °F 88% 30.01 in 6.2 mi North 21.9 mph 33.4 mph N/A   Mostly Cloudy
6:00 PM 56 °F 51 °F 78% 30.02 in 19 mi North 20.7 mph - -   Overcast
6:00 PM 55.4 °F 51.8 °F 88% 30.01 in 6.2 mi North 20.7 mph - N/A   Mostly Cloudy
6:30 PM 55.4 °F 51.8 °F 88% 30.01 in 6.2 mi North 26.5 mph - N/A   Mostly Cloudy
7:00 PM 56 °F 51 °F 79% 30.02 in - North 44.7 mph - -  
7:00 PM 55.4 °F 51.8 °F 88% 30.01 in 6.2 mi North 23.0 mph - N/A   Mostly Cloudy
7:30 PM 55.4 °F 51.8 °F 88% 30.01 in 6.2 mi North 21.9 mph - N/A   Scattered Clouds
8:00 PM 55.4 °F 51.8 °F 88% 30.01 in 6.2 mi North 20.7 mph - N/A   Mostly Cloudy
8:30 PM 55.4 °F 51.8 °F 88% 30.01 in 6.2 mi North 27.6 mph - N/A   Scattered Clouds
9:00 PM 56 °F 52 °F 81% 30.04 in 19 mi North 40.3 mph - -   Partly Cloudy
9:00 PM 55.4 °F 51.8 °F 88% 30.01 in 6.2 mi North 20.7 mph - N/A   Mostly Cloudy
9:30 PM 55.4 °F 51.8 °F 88% 30.01 in 6.2 mi North 19.6 mph - N/A   Scattered Clouds
9:53 PM 55.4 °F 51.8 °F 88% 30.01 in 6.2 mi North 23.0 mph 34.5 mph N/A   Scattered Clouds
10:00 PM 56 °F 52 °F 83% 30.04 in - North 38.0 mph - -  
10:00 PM 55.4 °F 51.8 °F 88% 30.01 in 6.2 mi North 19.6 mph - N/A   Mostly Cloudy
10:30 PM 55.4 °F 51.8 °F 88% 30.01 in 6.2 mi North 25.3 mph - N/A   Mostly Cloudy
11:00 PM 55.4 °F 51.8 °F 88% 30.01 in 6.2 mi North 19.6 mph - N/A   Mostly Cloudy
11:30 PM 55.4 °F 51.8 °F 88% 30.04 in 6.2 mi North 18.4 mph - N/A Rain Light Rain